Flag Weather past 2 weeks in Atlanta, Georgia, U.S.A.

Now
47 °F

Sunny.


Feels Like: 42 °F
Forecast: 41 / 52 °F
Wind: 9 mph from Northwest

Location: Fulton County Airport-Brown Field

Current Time: Nov 26, 2014 at 10:32:08 AM

Latest Report: Nov 26, 2014 at 9:53 AM


Visibility: 10 mi

Pressure: 30.10 "Hg

Humidity: 52%

Dew point: 30 °F

Location of AtlantaLocation

Historic Weather in Atlanta — Graph

°F

Atlanta temperature yesterday

Maximum temperature yesterday: 61 °F (at 2:53 PM)
Minimum temperature yesterday: 48 °F (at 4:53 AM)
Average temperature yesterday: 53 °F

Past Weeks' High & Low Weather Summary

 TemperatureHumidityPressure
High75 °F (Nov 24, 2:53 PM)97% (Nov 17, 12:53 AM)30.48 "Hg (Nov 17, 12:53 AM)
Low19 °F (Nov 19, 3:53 AM)26% (Nov 22, 12:53 PM)29.66 "Hg (Nov 23, 5:53 PM)
Average45 °F62%30.14 "Hg
* Reported Nov 11 8:53 AM — Nov 26 8:53 AM, Atlanta, Weather by CustomWeather, © 2014

Note: Actual official high and low records may vary slightly from our data, if they occured in-between our weather recording intervals... More about our weather records

Advertising

Atlanta weather history for previous 24 hours

 ConditionsComfort  
Time TempWeatherWind HumidityBarometerVisibility
8:53 AM
Nov 26
44 °FSunny.13 mph60%30.08 "Hg10 mi
7:53 AM43 °FSunny.3 mph62%30.05 "Hg10 mi
6:53 AM44 °FClear.6 mph60%30.03 "Hg10 mi
5:53 AM46 °FPassing clouds.5 mph58%30.00 "Hg10 mi
4:53 AM47 °FClear.6 mph54%29.97 "Hg10 mi
3:53 AM48 °FPassing clouds.8 mph52%29.98 "Hg10 mi
2:53 AM49 °FOvercast.7 mph50%29.98 "Hg10 mi
1:53 AM49 °FOvercast.No wind50%29.96 "Hg10 mi
12:53 AM50 °FMostly cloudy.5 mph50%30.00 "Hg10 mi
11:53 PM
Nov 25
51 °FOvercast.3 mph48%30.03 "Hg10 mi
10:53 PM52 °FOvercast.3 mph47%30.04 "Hg10 mi
9:53 PM52 °FPassing clouds.No wind47%30.05 "Hg10 mi
8:53 PM51 °FPassing clouds.3 mph61%30.04 "Hg10 mi
7:53 PM52 °FClear.No wind55%30.06 "Hg10 mi
6:53 PM55 °FClear.3 mph40%30.06 "Hg10 mi
5:53 PM55 °FClear.No wind40%30.00 "Hg10 mi
4:53 PM57 °FSunny.5 mph33%30.01 "Hg10 mi
3:53 PM61 °FSunny.10 mph29%30.00 "Hg10 mi
2:53 PM61 °FSunny.8 mph26%29.99 "Hg10 mi
1:53 PM60 °FSunny.10 mph27%30.01 "Hg10 mi
12:53 PM58 °FSunny.7 mph33%30.04 "Hg10 mi
11:53 AM57 °FSunny.8 mph34%30.08 "Hg10 mi
10:53 AM54 °FSunny.7 mph41%30.09 "Hg10 mi
Weather by CustomWeather, © 2014

See weather overviewHow to use our weather pages